Terug naar catalogus

DELTA 1 DEB

ActiefSSO
NORAD 7133·DEBRIS·🇺🇸 United States

Gelanceerd Nov 6, 1973 vanaf Vandenberg Space Force Base

Loading…

Volgende Passages (komende 24 uur)

TLE

VersSource: Space-Track

Epoch: Sep 14, 2026, 00:56 UTC

1 07133U 73086CX  26257.03943226  .00000126  00000-0  12354-2 0  9995
2 07133 101.6625 287.9612 0038528 155.3019 233.5231 12.41616259391371

Volg DELTA 1 DEB in realtime met AllMySat

Download on the App Store